TimePST,TemperatureF,Dew PointF,Humidity,Sea Level PressureIn,VisibilityMPH,Wind Direction,Wind SpeedMPH,Gust SpeedMPH,PrecipitationIn,Events,Conditions,WindDirDegrees,DateUTC
12:52 AM,46.0,28.9,51,30.01,-9999.0,NE,5.8,-,N/A,,Unknown,50,2012-11-04 07:52:00
1:52 AM,46.0,28.9,51,30.01,-9999.0,NE,8.1,-,N/A,,Unknown,40,2012-11-04 08:52:00
1:52 AM,48.0,28.9,48,30.00,-9999.0,ENE,10.4,-,N/A,,Unknown,60,2012-11-04 09:52:00
2:52 AM,55.0,30.0,38,29.99,-9999.0,Calm,Calm,-,N/A,,Unknown,0,2012-11-04 10:52:00
3:52 AM,50.0,30.0,46,30.00,-9999.0,Calm,Calm,-,N/A,,Unknown,0,2012-11-04 11:52:00
4:52 AM,45.0,28.0,52,30.02,-9999.0,Calm,Calm,-,N/A,,Unknown,0,2012-11-04 12:52:00
5:52 AM,44.1,26.1,49,30.04,-9999.0,NE,3.5,-,N/A,,Unknown,40,2012-11-04 13:52:00
6:52 AM,46.9,27.0,46,30.07,-9999.0,ENE,3.5,-,N/A,,Unknown,60,2012-11-04 14:52:00
7:52 AM,59.0,30.9,35,30.08,-9999.0,Calm,Calm,-,N/A,,Unknown,0,2012-11-04 15:52:00
8:52 AM,75.9,24.1,15,30.06,-9999.0,NE,13.8,20.7,N/A,,Unknown,50,2012-11-04 16:52:00
9:52 AM,78.1,23.0,13,30.06,-9999.0,NE,16.1,23.0,N/A,,Unknown,40,2012-11-04 17:52:00
10:52 AM,80.1,21.0,11,30.04,-9999.0,ENE,15.0,20.7,N/A,,Unknown,70,2012-11-04 18:52:00
11:52 AM,79.0,23.0,13,30.02,-9999.0,ENE,15.0,23.0,N/A,,Unknown,60,2012-11-04 19:52:00
12:52 PM,80.1,19.0,10,30.00,-9999.0,NE,17.3,23.0,N/A,,Unknown,50,2012-11-04 20:52:00
1:52 PM,80.1,19.0,10,30.00,-9999.0,ENE,20.7,28.8,N/A,,Unknown,70,2012-11-04 21:52:00
2:52 PM,79.0,18.0,10,29.99,-9999.0,NE,18.4,-,N/A,,Unknown,50,2012-11-04 22:52:00
3:52 PM,77.0,17.1,10,30.00,-9999.0,NE,18.4,23.0,N/A,,Unknown,50,2012-11-04 23:52:00
4:52 PM,73.0,19.0,13,30.03,-9999.0,NE,8.1,-,N/A,,Unknown,40,2012-11-05 00:52:00
5:52 PM,61.0,19.0,20,30.06,-9999.0,ENE,5.8,-,N/A,,Unknown,70,2012-11-05 01:52:00
6:52 PM,57.9,19.0,22,30.06,-9999.0,ENE,4.6,-,N/A,,Unknown,70,2012-11-05 02:52:00
7:52 PM,50.0,19.0,29,30.06,-9999.0,NNE,3.5,-,N/A,,Unknown,30,2012-11-05 03:52:00
8:52 PM,46.9,19.0,33,30.06,-9999.0,Variable,4.6,-,N/A,,Unknown,0,2012-11-05 04:52:00
9:52 PM,48.0,19.9,33,30.06,-9999.0,Calm,Calm,-,N/A,,Unknown,0,2012-11-05 05:52:00
10:52 PM,46.0,19.9,35,30.06,-9999.0,Calm,Calm,-,N/A,,Unknown,0,2012-11-05 06:52:00